Regional Weather Roundup
Issued by NWS Burlington, VT

Home | Current Version | Previous Version | Text Only | Print | Product List | Glossary On
Versions: 1 2 3 4 5 6 7 8 9 10 11 12 13 14 15 16 17 18 19 20 21 22 23 24 25 26 27 28 29 30 31 32 33 34 35 36 37 38 39 40 41 42 43 44 45 46 47 48 49 50
000
ASUS41 KBTV 260710
RWRBTV
VERMONT REGIONAL WEATHER ROUNDUP
NATIONAL WEATHER SERVICE BURLINGTON VT
300 AM EDT SUN MAR 26 2017

NOTE: "FAIR" INDICATES FEW OR NO CLOUDS BELOW 12,000 FEET WITH NO
SIGNIFICANT WEATHER AND/OR OBSTRUCTIONS TO VISIBILITY.

* THESE REPORTS ARE NOT UNDER NWS QUALITY CONTROL AND/OR DO NOT
  REPORT WEATHER SUCH AS PRECIPITATION AND FOG.

VTZ001>019-260800-
_____VERMONT_____


CITY           SKY/WX    TMP DP  RH WIND       PRES   REMARKS
BURLINGTON     CLOUDY    21  17  84 CALM      30.50R
MONTPELIER     CLOUDY    14  12  92 CALM      30.49R
MORRISVILLE    CLOUDY     9   5  84 CALM      30.49R
ST. JOHNSBURY*   N/A     15  12  88 MISG      30.47R
LYNDONVILLE*   FAIR      18   8  64 W6        30.45R WCI  10
MIDDLEBURY*    FAIR      19  15  85 CALM      30.47R
RUTLAND*       CLOUDY    21  19  92 S3        30.44S
SPRINGFIELD    PTCLDY    24  21  88 CALM      30.46S
HIGHGATE*      FAIR      15  14  95 CALM      30.51R
NEWPORT*       FAIR      11   8  89 CALM      30.47R
BENNINGTON     CLOUDY    25  23  92 CALM      30.41F FOG
SUTTON*          N/A     18 N/A N/A MISG        N/A

_____LAKE CHAMPLAIN_____


CITY           SKY/WX    TMP DP  RH WIND       PRES   REMARKS
BURTON ISLAND*   N/A     21  19  93 E1          N/A
COLCHESTER RF*   N/A     27  25  93 NW9         N/A  WCI  17
DIAMOND ISL*     N/A     28  23  80 E3          N/A

$$

NYZ007-026>031-035-052-083-087-260800-
_____NORTHERN NEW YORK_____


CITY           SKY/WX    TMP DP  RH WIND       PRES   REMARKS
PLATTSBURGH    CLOUDY    17  14  88 CALM      30.51R
SARANAC LAKE   CLOUDY     7   5  91 CALM      30.37S
MASSENA        CLOUDY    18  16  92 NE6       30.48S WCI  10
WATERTOWN      PTCLDY    26  25  96 E7        30.39F WCI  18
FT DRUM        CLOUDY    26  23  88 E7        30.37F WCI  19
ALBANY         CLOUDY    29  18  63 N6        30.46S WCI  23
GLENS FALLS    CLOUDY    23  18  81 N3        30.46F

$$
NHZ002-005-011-260800-
_____NEW HAMPSHIRE_____


CITY           SKY/WX    TMP DP  RH WIND       PRES   REMARKS
LEBANON        CLOUDY    22  19  89 CALM      30.46F
KEENE          FOG       23  21  93 N3        30.46S VSB 1
MT WASHINGTON  PTCLDY    23  -4  30 NW26        N/A  WCI   6
PLYMOUTH       FAIR      21  19  90 CALM      30.46S
WHITEFIELD     CLOUDY     8   3  80 S5        30.43R WCI   0

$$

_____REGIONAL QUEBEC LOCATIONS_____


CITY           SKY/WX    TMP DP  RH WIND       PRES   REMARKS
MONTREAL       CLEAR     21  10  63 NE8       30.52R WCI  12
SHERBROOKE     CLEAR      9   3  78 E7        30.47R WCI  -3

_____REGIONAL ONTARIO LOCATIONS_____


CITY           SKY/WX    TMP DP  RH WIND       PRES   REMARKS
OTTAWA         PTCLDY    23  21  93 NE9       30.46S FOG     WCI  13

______KEY______
VSB  - VISIBILITY IN MILES
WCI  - WIND CHILL INDEX
HX   - HEAT INDEX
$$
NNNN




USA.gov is the U.S. government's official web portal to all federal, state and local government web resources and services.